Погода в Водяном

Украина / Запорожская область     47°29′07″N   34°30′22″E
темп.,
°C
ветер,
м/с
пор.,
м/с
влажн.,
%
обл.,
%
осадки,
мм/ч
давл.,
гПа
погр.,
м
26 сентября, вс
вс2600:00+16зюз7964100 0.0 1017570
03:00+16зюз8116099 0.0 1017552
06:00+16з81173100 0.0 1016536
09:00+16з81177100 0.0 1017546
12:00+17зсз81073100 0.0 1018784
15:00+20сз81059100 0.1 10171482
18:00+19сз7105050 0.0 1017519
21:00+16ссз510590 0.0 1018478
27 сентября, пн
пн2700:00+15с69660 0.0 1018390
03:00+13с57720 0.0 1019318
06:00+12ссз69720 0.0 1019475
09:00+12с67680 0.0 1020577
12:00+15с56520 0.0 10201298
15:00+17с55445 0.0 10191670
18:00+16с454720 0.0 10191032
21:00+14св685472 0.0 1020483
28 сентября, вт
вт2800:00+13ссв466017 0.0 1020228
03:00+14ссв4563100 0.0 1020328
06:00+13ссв4569100 0.0 1020371
09:00+13св566894 0.1 1021597
12:00+15св6653100 0.1 10221267
15:00+16ссв4544100 0.1 10221564
18:00+15ссв674998 0.0 1023760
21:00+14ссв675495 0.0 1024684
29 сентября, ср
ср2900:00+13св6770100 0.0 1025353
03:00+12св7872100 0.1 1025454
06:00+12св8972100 0.1 1026548
09:00+12всв81069100 0.1 1027573
12:00+15всв775334 0.0 10281384
15:00+16св554591 0.0 10271874
18:00+14св785570 0.0 1028865
21:00+13всв785820 0.0 1029905
30 сентября, чт
чт3000:00+12всв68585 0.0 1030628
03:00+10св57660 0.0 1030286
06:00+10всв68592 0.0 1031322
09:00+11всв78515 0.0 1032621
12:00+13всв674131 0.0 10311187
15:00+15в5635100 0.0 10311390
18:00+14всв57378 0.0 1030940
21:00+13всв68455 0.0 1031653